Find Starlink 35049

NORAD ID: 65444 Int'l Des: 2025-194 Owner: SPXS Country: US Constellation: starlink operational
LEOCIRCULARRETROGRADESSO

Current View

Loading 3D Globe...

About Starlink 35049

Description loading...

Upcoming Passes

Passes for default location (London). Set your location on the main map for personalized predictions.

Altitude History

Loading altitude history...

Two-Line Element Set

1 65444U 25194L 26151.53711262 .00005966 00000-0 41702-3 0 9999
2 65444 97.4207 5.5296 0002515 110.5331 249.6166 15.05662074 42116
Epoch: May 31, 2026 • Age: 6 hours

Current Status

Altitude 553.0 km
Velocity 7.59 km/s
Sub-Earth Point -5.63°S, 18.3°E
Launch Date Sep 3, 2025
Age 0.7 years
Type internet

Technical Details

Classification Payload
Mass 575.00 kg
Dry Mass 530.00 kg
Total Mass 575.00 kg
Length 0.30 m
Diameter 4.10 m
Span 29.00 m
Shape Box + pan
Manufacturer SPXS
Bus Type Starlink V2MO
Phase Status In Orbit
Owner/State SPXS/US

Most Searched